Location: Cabeza de los Veneras
(40.2000°N, 5.2000°W)
Time: 03:46:52
(UTC+00:00)

Cosmos 2263 Rocket - Pass Details

Date: 18 April 2024
Orbit: 824 x 846 km, 71.0° (Epoch: 25 May)

Event Time Altitude Azimuth Distance (km) Brightness Sun altitude
Rises 22:41:27 0° 339° (NNW) 3,387 6.4 -33.7°
Reaches altitude 10° 22:43:55 10° 342° (NNW) 2,446 5.4 -33.9°
Enters shadow 22:47:33 40° 356° (N) 1,201 3.3 -34.3°
